Location: Davayat
(45.9471°N, 3.1105°E)
Time: 18:14:34
(UTC+00:00)

SL-16 R/B - Pass Details

Date: 01 December 2020
Orbit: 841 x 849 km, 71.0° (Epoch: 17 January)

Event Time Altitude Azimuth Distance (km) Brightness Sun altitude
Rises 18:36:08 0° 253° (WSW) 3,391 6.6 -25.7°
Reaches altitude 10° 18:39:17 10° 271° (W) 2,460 5.6 -26.2°
Maximum altitude 18:43:17 19° 316° (NW) 1,884 4.4 -26.9°
Drops below altitude 10° 18:47:18 10° 2° (N) 2,469 4.6 -27.6°
Enters shadow 18:47:21 10° 2° (N) 2,481 4.6 -27.6°
